PEGASUS DEB, 39919

Orbit data source: Space-Track

PEGASUS DEB, 39919 is space debris in LEO originally from a launch on Thu, 19 May 1994 UTC launched from the Air Force Western Test Range (AFWTR). Debris objects in space refer to the collection of defunct objects orbiting the Earth. Examples of debris include non-operational satellites, rocket bodies, and fragments generated from explosions, collisions, or faulty payload assembly.

Loading next visibility...
Identifier
39919, 1994-029AFS
Orbit
LEO
Country
Flag of USUS
Related business
Manufacturer
Unknown
Mission
Spacecraft
Bus & Motor
Unknown
Mass
Unknown
Launch date (UTC)
1994-05-19 (32 years ago)
Launch vehicle
Unknown
Launch site
Air Force Western Test Range (AFWTR)
Object type
Payload
Rocket body
Debris
Shape & HBR
Unknown shape, 0.1 m
Radar Cross Section
Small (<0.1 m²)

Expand to show TLE details & history
Last TLE update: 1 week ago

TLE from 1 week ago
0 PEGASUS DEB
1 39919U 94029AFS 26199.90072992  .00001145  00000-0  21980-3 0  9994
2 39919  81.8457  60.5107 0254422 175.5298 184.8258 14.44224966634383
Epoch: 2026-07-18T21:37Z
TLE epoch observation values (Epoch: 2026-07-18T21:37:03.065Z)
Latitude
-0.00002°
Longitude
159.54109°
Altitude
928.185 km
Speed
7.294 km/s
True Right ascension
04h 02m 02s
True Declination
0° 00' 00"
Sunlit
Object was in daylight at epoch
Visualization orbit readout
Latitude
Unknown
Longitude
Unknown
Altitude
Unknown
Speed
Unknown
Apparent Right ascension
Unknown
Apparent Declination
Unknown
Sunlit
N/A
Visualization observer readout
Local Sidereal Time
21:06:08
Azimuth
Unknown
Elevation
Unknown
Doppler factor
Unknown
Orbital elements
Apogee altitude
922.814 km
Perigee altitude
560.527 km
Semi-major axis
7,119.808 km
Eccentricity
0.02544
Inclination
81.8457°
RAAN
60.5107°
Arg. of periapsis
175.5298°
True anomaly
184.58808°
Mean anomaly
184.8258°
Eccentric anomaly
184.7062°
Mean motion
3.61277 °/min
Orbital period
99.65 mins
BSTAR
0.0002198
Loading maneuver chart data...
Computing Atmospheric mass density...

Documentation

Showing up to 5 results
|